This is the latest recevied weather packets stored in our database for station/object KI7JYE. If no packets are shown the sender has not sent any weather packets the latest 10 day(s).
| Time | Temp. | Humidity | Pressure | Rain* | Wind** | Luminosity | Snow |
|---|---|---|---|---|---|---|---|
| 1777920726 | 16.67° C | 75% | 1012.6 hPa | 0 mm | - | 333 W/m² | - |
| 1777920422 | 16.11° C | 77% | 1012.6 hPa | 0 mm | - | 293 W/m² | - |
| 1777920117 | 15.56° C | 78% | 1012.7 hPa | 0 mm | - | 283 W/m² | - |
| 1777919814 | 15.56° C | 79% | 1012.7 hPa | 0 mm | - | 275 W/m² | - |
| 1777919511 | 15.56° C | 77% | 1012.8 hPa | 0 mm | - | 263 W/m² | - |
| 1777919209 | 15.56° C | 79% | 1012.8 hPa | 0 mm | - | 231 W/m² | - |
| 1777918906 | 15.56° C | 79% | 1012.8 hPa | 0 mm | - | 206 W/m² | - |
| 1777918604 | 15° C | 79% | 1012.8 hPa | 0 mm | - | 202 W/m² | - |
| 1777918301 | 15° C | 79% | 1012.6 hPa | 0 mm | - | 191 W/m² | - |
| 1777918000 | 15° C | 78% | 1012.8 hPa | 0 mm | - | 198 W/m² | - |
| 1777917698 | 15° C | 79% | 1012.7 hPa | 0 mm | - | 200 W/m² | - |
| 1777917395 | 15° C | 79% | 1012.7 hPa | 0 mm | - | 188 W/m² | - |
| 1777917091 | 15° C | 79% | 1012.5 hPa | 0 mm | - | 185 W/m² | - |
| 1777916790 | 15° C | 80% | 1012.5 hPa | 0 mm | - | 183 W/m² | - |
| 1777916486 | 15° C | 80% | 1012.8 hPa | 0 mm | - | 172 W/m² | - |
| 1777916183 | 14.44° C | 81% | 1012.5 hPa | 0 mm | - | 174 W/m² | - |
| 1777915881 | 14.44° C | 82% | 1012.6 hPa | 0 mm | - | 161 W/m² | - |
| 1777915577 | 14.44° C | 82% | 1012.7 hPa | 0 mm | - | 154 W/m² | - |
| 1777915274 | 13.89° C | 82% | 1012.8 hPa | 0 mm | - | 147 W/m² | - |
| 1777914970 | 14.44° C | 82% | 1012.4 hPa | 0 mm | - | 169 W/m² | - |
| 1777914668 | 14.44° C | 82% | 1012.8 hPa | 0 mm | - | 163 W/m² | - |
| 1777914363 | 13.89° C | 83% | 1012.7 hPa | 0 mm | - | 150 W/m² | - |
| 1777914061 | 13.89° C | 82% | 1012.7 hPa | 0 mm | - | 144 W/m² | - |
| 1777913756 | 13.89° C | 84% | 1012.6 hPa | 0 mm | - | 140 W/m² | - |
| 1777913453 | 13.89° C | 82% | 1012.5 hPa | 0 mm | - | 127 W/m² | - |
* Rain latest hour (hover to see other rain measurements)
** Current wind speed in m/s (hover to see current wind gust speed)